Avoca, PA

7:43 AM EST on November 19, 2019 (GMT -0500)
Wilkes-Barre-Scranton International

Weather History for KAVP - September, 2019

Change the Weather History Date:

Wednesday, September 4, 2019

  Actual Average Record
Temperature  
Mean Temperature 75 °F 66 °F  
Max Temperature 86 °F 76 °F 92 °F (1953)
Min Temperature 64 °F 56 °F 40 °F (1997)
Degree Days  
Heating Degree Days 0 2  
Month to date heating degree days 0 7  
Since 1 July heating degree days 1 33  
Cooling Degree Days 10 3  
Month to date cooling degree days 19 13  
Year to date cooling degree days 758 537  
Growing Degree Days 26 (Base 50)    
Moisture  
Dew Point 63 °F    
Average Humidity 69    
Maximum Humidity 87    
Minimum Humidity 51    
Precipitation  
Precipitation 0.00 in 0.13 in 1.33 in (1905)
Month to date precipitation 0.05 0.50  
Year to date precipitation 37.71 25.53  
Sea Level Pressure  
Sea Level Pressure 29.93 in    
Wind  
Wind Speed 7 mph (West)    
Max Wind Speed 20 mph    
Max Gust Speed 27 mph    
Visibility 10 miles    
Events      
T = Trace of Precipitation, MM = Missing Value Source: NWS Daily Summary

Daily Weather History Graph

Daily Weather History Graph

Search for Another Location

Airport or City:

Astronomy

Sep. 04, 2019 Rise Set
Actual Time 6:31 AM EDT 7:31 PM EDT
Civil Twilight 6:03 AM EDT 7:59 PM EDT
Nautical Twilight 5:30 AM EDT 8:32 PM EDT
Astronomical Twilight 4:54 AM EDT 9:07 PM EDT
Moon 12:34 PM EDT (9/4) 11:00 PM EDT (9/4)
Length of Visible Light 13h 55m
Length of Day
12h 59m
Waxing Crescent, 34% of the Moon is Illuminated
Sep 4
Waxing Crescent
Sep 5
First Quarter
Sep 14
Full
Sep 21
Last Quarter
Sep 28
New

Hourly Weather History & Observations

Time (EDT) Temp. Heat Index Dew Point Humidity Pressure Visibility Wind Dir Wind Speed Gust Speed Precip Events Conditions
12:54 AM 66.9 °F - 61.0 °F 81% 29.96 in 10.0 mi Variable 3.5 mph - N/A   Clear
1:54 AM 69.1 °F - 61.0 °F 75% 29.95 in 10.0 mi SW 3.5 mph - N/A   Clear
2:54 AM 66.9 °F - 62.1 °F 84% 29.94 in 10.0 mi Calm Calm - N/A   Partly Cloudy
3:54 AM 69.1 °F - 64.0 °F 84% 29.91 in 9.0 mi SW 5.8 mph - N/A   Scattered Clouds
4:15 AM 68.0 °F - 64.0 °F 87% 29.95 in 9.0 mi Variable 4.6 mph - N/A   Mostly Cloudy
4:54 AM 69.1 °F - 63.0 °F 81% 29.92 in 10.0 mi Calm Calm - N/A   Overcast
5:54 AM 68.0 °F - 64.0 °F 87% 29.91 in 9.0 mi SW 3.5 mph - N/A   Overcast
6:54 AM 69.1 °F - 64.9 °F 87% 29.91 in 9.0 mi Calm Calm - N/A   Overcast
7:54 AM 71.1 °F - 66.0 °F 84% 29.93 in 8.0 mi WNW 3.5 mph - N/A   Overcast
8:31 AM 72.0 °F - 66.9 °F 84% 29.93 in 8.0 mi SSW 3.5 mph - N/A   Scattered Clouds
9:54 AM 78.1 °F - 68.0 °F 71% 29.89 in 10.0 mi West 9.2 mph - N/A   Scattered Clouds
10:54 AM 79.0 °F - 66.9 °F 66% 29.88 in 10.0 mi SW 11.5 mph - N/A   Mostly Cloudy
11:54 AM 79.0 °F - 66.9 °F 66% 29.88 in 10.0 mi WSW 12.7 mph - N/A   Overcast
12:36 PM 79.0 °F - 66.9 °F 66% 29.91 in 10.0 mi West 13.8 mph 25.3 mph N/A   Mostly Cloudy
12:54 PM 82.0 °F 85.5 °F 69.1 °F 65% 29.88 in 10.0 mi SW 10.4 mph 20.7 mph N/A   Mostly Cloudy
1:54 PM 81.0 °F 83.3 °F 66.9 °F 62% 29.88 in 10.0 mi WSW 13.8 mph - N/A   Mostly Cloudy
2:54 PM 84.0 °F 86.5 °F 66.9 °F 56% 29.86 in 10.0 mi WSW 12.7 mph 18.4 mph N/A   Partly Cloudy
3:54 PM 84.9 °F 86.1 °F 64.0 °F 49% 29.86 in 10.0 mi WSW 19.6 mph 25.3 mph N/A   Clear
4:11 PM 82.0 °F 82.7 °F 61.0 °F 49% 29.90 in 10.0 mi NW 10.4 mph 21.9 mph N/A   Mostly Cloudy
4:54 PM 82.9 °F 83.7 °F 62.1 °F 49% 29.87 in 10.0 mi NW 8.1 mph - N/A   Mostly Cloudy
5:54 PM 84.9 °F 86.1 °F 64.0 °F 49% 29.88 in 10.0 mi WNW 8.1 mph - N/A   Scattered Clouds
6:54 PM 80.1 °F 81.1 °F 61.0 °F 52% 29.91 in 10.0 mi NNW 5.8 mph - N/A   Clear
7:54 PM 75.9 °F - 59.0 °F 56% 29.94 in 10.0 mi North 5.8 mph - N/A   Clear
8:07 PM 75.0 °F - 57.9 °F 55% 29.97 in 10.0 mi NNW 6.9 mph - N/A   Clear
8:54 PM 72.0 °F - 59.0 °F 64% 29.98 in 10.0 mi Calm Calm - N/A   Mostly Cloudy
9:54 PM 71.1 °F - 57.9 °F 63% 30.01 in 10.0 mi Variable 5.8 mph - N/A   Partly Cloudy
10:54 PM 68.0 °F - 57.9 °F 70% 30.04 in 10.0 mi North - - N/A   Partly Cloudy
11:54 PM 66.0 °F - 57.0 °F 73% 30.05 in 10.0 mi NNE 11.5 mph - N/A   Partly Cloudy